STARLINK-32365, 61625

Orbit data source: Space-Track

STARLINK-32365, 61625 is a payload satellite owned by SpaceX/Seattle (US) in LEO that was launched on Wed, 23 Oct 2024 UTC via an FALCON 9 launch vehicle from the Air Force Eastern Test Range (AFETR). Payload-class satellites include a variety of spacecraft equipped with specific instruments for various scientific and technological missions. These include communications satellites like Starlink; space stations such as the ISS; scientific satellites like the Hubble; Earth observation satellites from companies like Planet Labs, Umbra, and HawkEye 360; GPS; miniature CubeSats for education and research; and military/defense satellites.

Loading next visibility...
Identifier
61625, 2024-191E
Orbit
LEO
Country
Flag of USUS
Related business
Manufacturer
SpaceX/Seattle
Mission
Operational Commercial Communications
Bus & Motor
STARLINK V2M, Unknown motor
Mass
730 kg wet, ~700 kg dry
Launch date (UTC)
2024-10-23 (2 years ago)
Launch vehicle
FALCON 9
Launch site
Air Force Eastern Test Range (AFETR)
Object type
Payload
Rocket body
Debris
Shape & HBR
Box + 2 Pan, 17.7 m
Radar Cross Section
33.884 m², Large (>1 m²)

Expand to show TLE details & history
Last TLE update: 17 hours ago

TLE from 17 hours ago
0 STARLINK-32365
1 61625U 24191E   26195.96185358 -.00002186  00000-0 -69969-4 0  9997
2 61625  43.0022 155.5121 0001270 258.7695 101.3014 15.27569809 97003
Epoch: 2026-07-14T23:05Z
TLE epoch observation values (Epoch: 2026-07-14T23:05:04.149Z)
Latitude
-0.00001°
Longitude
-123.57969°
Altitude
483.026 km
Speed
7.626 km/s
True Right ascension
10h 22m 02s
True Declination
0° 00' 00"
Sunlit
Object was in daylight at epoch
Visualization orbit readout
Latitude
Unknown
Longitude
Unknown
Altitude
Unknown
Speed
Unknown
Apparent Right ascension
Unknown
Apparent Declination
Unknown
Sunlit
N/A
Visualization observer readout
Local Sidereal Time
04:50:00
Azimuth
Unknown
Elevation
Unknown
Doppler factor
Unknown
Orbital elements
Apogee altitude
485.896 km
Perigee altitude
484.153 km
Semi-major axis
6,863.161 km
Eccentricity
0.00013
Inclination
43.0022°
RAAN
155.5121°
Arg. of periapsis
258.7695°
True anomaly
101.31567°
Mean anomaly
101.3014°
Eccentric anomaly
101.30854°
Mean motion
3.8173 °/min
Orbital period
94.31 mins
BSTAR
-0.000069969
Loading maneuver chart data...
Computing Atmospheric mass density...
Loading historical data...
Loading historical data...
Loading historical data...
Loading historical data...
Loading historical data...
Loading historical data...
Loading historical data...

Documentation

Showing up to 5 results
|